Bedford, MA

2:20 AM EDT on May 27, 2017 (GMT -0400)
Hanscom

Weather History for KBED - February, 2014

Change the Weather History Date:

Tuesday, February 11, 2014

  Actual Average Record
Temperature  
Mean Temperature 10 °F -  
Max Temperature 23 °F 36 °F 63 °F (1981)
Min Temperature -4 °F 16 °F -10 °F (1962)
Degree Days  
Heating Degree Days 56    
Moisture  
Dew Point -1 °F    
Average Humidity 63    
Maximum Humidity 95    
Minimum Humidity 39    
Precipitation  
Precipitation 0.00 in - - ()
Sea Level Pressure  
Sea Level Pressure 30.35 in    
Wind  
Wind Speed 4 mph (WNW)    
Max Wind Speed 15 mph    
Max Gust Speed 22 mph    
Visibility 10 miles    
Events      
Averages and records for this station are not official NWS values.
T = Trace of Precipitation, MM = Missing Value Source: NWS Daily Summary

Daily Weather History Graph

Daily Weather History Graph

Search for Another Location

Airport or City:

Trip Planner

Search our weather history database for the weather conditions in past years. The results will help you decide how hot, cold, wet, or windy it might be!

Date:

Astronomy

Feb. 11, 2014 Rise Set
Actual Time 6:47 AM EST 5:12 PM EST
Civil Twilight 6:18 AM EST 5:41 PM EST
Nautical Twilight 5:45 AM EST 6:14 PM EST
Astronomical Twilight 5:12 AM EST 6:47 PM EST
Moon 2:28 PM EST (2/11) 4:23 AM EST (2/11)
Length of Visible Light 11h 23m
Length of Day
10h 24m
Waxing Gibbous, 90% of the Moon is Illuminated
Feb 11
Waxing Gibbous
Feb 14
Full
Feb 22
Last Quarter
Mar 1
New
Mar 8
First Quarter

Hourly Weather History & Observations

Time (EST) Temp. Windchill Dew Point Humidity Pressure Visibility Wind Dir Wind Speed Gust Speed Precip Events Conditions
12:56 AM 1.0 °F - -0.9 °F 91% 30.27 in 10.0 mi Calm Calm - N/A   Clear
1:56 AM -0.0 °F - -2.9 °F 88% 30.27 in 8.0 mi Calm Calm - N/A   Clear
2:56 AM -0.9 °F - -2.9 °F 91% 30.28 in 9.0 mi Calm Calm - N/A   Clear
3:56 AM -0.9 °F - -5.1 °F 83% 30.28 in 9.0 mi Calm Calm - N/A   Clear
4:56 AM -0.9 °F - -4.0 °F 87% 30.30 in 9.0 mi Calm Calm - N/A   Clear
5:56 AM -4.0 °F - -5.1 °F 95% 30.31 in 9.0 mi Calm Calm - N/A   Clear
6:56 AM -2.9 °F - -5.1 °F 90% 30.32 in 8.0 mi Calm Calm - N/A   Clear
7:56 AM 5.0 °F -5.6 °F 1.9 °F 87% 30.34 in 8.0 mi WSW 5.8 mph - N/A   Clear
8:56 AM 12.0 °F 2.7 °F 6.1 °F 77% 30.34 in 9.0 mi WSW 5.8 mph - N/A   Clear
9:56 AM 18.0 °F 3.6 °F 3.0 °F 52% 30.35 in 10.0 mi WNW 15.0 mph 21.9 mph 0.00 in   Clear
10:56 AM 19.0 °F 11.1 °F 3.9 °F 52% 30.35 in 10.0 mi NW 5.8 mph - 0.00 in   Clear
11:56 AM 19.9 °F 10.1 °F 3.0 °F 48% 30.33 in 10.0 mi WNW 8.1 mph 16.1 mph 0.00 in   Scattered Clouds
12:56 PM 21.0 °F 11.4 °F 3.0 °F 46% 30.31 in 10.0 mi WNW 8.1 mph - 0.00 in   Scattered Clouds
1:56 PM 21.9 °F 11.7 °F 1.0 °F 40% 30.29 in 10.0 mi West 9.2 mph 20.7 mph N/A   Clear
2:56 PM 23.0 °F 13.1 °F 1.0 °F 39% 30.29 in 10.0 mi West 9.2 mph - N/A   Clear
3:56 PM 23.0 °F 11.7 °F 1.0 °F 39% 30.31 in 10.0 mi WNW 11.5 mph - N/A   Partly Cloudy
4:56 PM 21.0 °F 10.6 °F -0.0 °F 40% 30.34 in 10.0 mi NW 9.2 mph - N/A   Clear
5:56 PM 18.0 °F 8.7 °F -0.9 °F 44% 30.38 in 10.0 mi NW 6.9 mph - N/A   Clear
6:56 PM 17.1 °F 6.6 °F -0.9 °F 45% 30.40 in 10.0 mi NW 8.1 mph - N/A   Clear
7:56 PM 16.0 °F 8.8 °F -0.9 °F 47% 30.42 in 10.0 mi NW 4.6 mph - N/A   Clear
8:56 PM 15.1 °F 7.7 °F -2.0 °F 47% 30.44 in 10.0 mi West 4.6 mph - N/A   Clear
9:56 PM 10.9 °F 1.4 °F -2.0 °F 56% 30.45 in 10.0 mi West 5.8 mph - N/A   Clear
10:56 PM 5.0 °F - -2.9 °F 70% 30.47 in 10.0 mi Calm Calm - N/A   Clear
11:56 PM 10.0 °F -0.9 °F -2.0 °F 58% 30.49 in 10.0 mi NNW 6.9 mph - N/A   Clear